IBE250 SEQM-LPPT

Flight info

Callsign IBE250
Flight time N/A
Altitude 35000
Route ARNO3A ARNOK UP533 CITRS 2154N 2550N 2845N 3139N 3434N GINSU H105 VSM H102 BEKUN GUNTI UZ21 NEGRI LAZET LAZE2A
Aircraft A346/H-VGDW/C

Departure

Time N/A
Airport Mariscal Sucre International Airport (SEQM)

Arrival

Time 2026-05-07 15:08
Airport Lisbon Humberto Delgado Airport (LPPT)
Time Latitude Longitude Altitude Speed Heading
2026-05-07 14:16 38.98970 -14.84787 36960 ft 498 kts 101°
2026-05-07 14:16 38.98316 -14.75894 36958 ft 498 kts 101°
2026-05-07 14:17 38.97670 -14.66999 36958 ft 498 kts 101°
2026-05-07 14:17 38.97346 -14.62528 36360 ft 498 kts 101°
2026-05-07 14:17 38.97007 -14.58130 37119 ft 493 kts 100°
2026-05-07 14:17 38.96701 -14.53724 36996 ft 495 kts 100°
2026-05-07 14:18 38.96384 -14.49312 36966 ft 496 kts 101°
2026-05-07 14:18 38.95730 -14.40448 36959 ft 496 kts 101°
2026-05-07 14:19 38.95069 -14.31609 36955 ft 496 kts 101°
2026-05-07 14:19 38.94403 -14.22785 36953 ft 496 kts 101°
2026-05-07 14:20 38.93734 -14.13985 36932 ft 495 kts 101°
2026-05-07 14:20 38.93054 -14.05148 36951 ft 495 kts 101°
2026-05-07 14:21 38.92368 -13.96329 36952 ft 495 kts 101°
2026-05-07 14:21 38.91677 -13.87524 36952 ft 495 kts 101°
2026-05-07 14:22 38.90979 -13.78698 36941 ft 498 kts 101°
2026-05-07 14:22 38.90269 -13.69839 36951 ft 498 kts 102°
2026-05-07 14:23 38.89557 -13.61036 36956 ft 498 kts 102°
2026-05-07 14:23 38.88833 -13.52162 36958 ft 498 kts 102°
2026-05-07 14:24 38.88134 -13.43286 36951 ft 502 kts 99°
2026-05-07 14:24 38.88002 -13.34258 36960 ft 507 kts 93°
2026-05-07 14:25 38.88254 -13.25190 36957 ft 507 kts 92°
2026-05-07 14:25 38.88516 -13.16127 36960 ft 507 kts 93°
2026-05-07 14:26 38.88753 -13.07092 36954 ft 511 kts 92°
2026-05-07 14:26 38.88984 -12.97954 36956 ft 512 kts 92°
2026-05-07 14:27 38.89209 -12.88815 36960 ft 512 kts 92°
2026-05-07 14:27 38.89425 -12.79658 36960 ft 512 kts 93°
2026-05-07 14:28 38.89628 -12.70513 36953 ft 512 kts 92°
2026-05-07 14:28 38.89836 -12.61341 36956 ft 512 kts 92°
2026-05-07 14:29 38.90035 -12.52171 36948 ft 513 kts 92°
2026-05-07 14:29 38.90222 -12.43031 36957 ft 514 kts 92°
2026-05-07 14:30 38.90398 -12.33832 36950 ft 515 kts 92°
2026-05-07 14:30 38.90573 -12.24629 36959 ft 515 kts 92°
2026-05-07 14:31 38.90740 -12.15418 36958 ft 515 kts 92°
2026-05-07 14:31 38.90900 -12.06192 36956 ft 515 kts 92°
2026-05-07 14:32 38.91025 -11.98524 36954 ft 517 kts 92°
2026-05-07 14:32 38.91194 -11.87767 36749 ft 518 kts 92°
2026-05-07 14:32 38.91264 -11.83152 36384 ft 515 kts 92°
2026-05-07 14:33 38.91310 -11.80046 36049 ft 514 kts 92°
2026-05-07 14:33 38.91376 -11.75458 35505 ft 512 kts 92°
2026-05-07 14:33 38.91440 -11.70871 34943 ft 512 kts 92°
2026-05-07 14:33 38.91502 -11.66292 34362 ft 512 kts 92°
2026-05-07 14:34 38.91562 -11.61708 33750 ft 513 kts 92°
2026-05-07 14:34 38.91621 -11.57113 33118 ft 512 kts 92°
2026-05-07 14:34 38.91677 -11.52604 32562 ft 510 kts 92°
2026-05-07 14:34 38.91733 -11.47987 32003 ft 508 kts 92°
2026-05-07 14:35 38.91786 -11.43506 31462 ft 507 kts 92°
2026-05-07 14:35 38.91837 -11.38986 30908 ft 505 kts 92°
2026-05-07 14:35 38.91886 -11.34471 30363 ft 503 kts 92°
2026-05-07 14:35 38.91931 -11.29961 29807 ft 506 kts 92°
2026-05-07 14:36 38.91972 -11.25428 29171 ft 507 kts 92°
2026-05-07 14:36 38.92016 -11.20895 28477 ft 507 kts 92°
2026-05-07 14:36 38.92061 -11.16358 27878 ft 508 kts 92°
2026-05-07 14:36 38.92103 -11.11814 27257 ft 508 kts 92°
2026-05-07 14:37 38.92143 -11.07272 26630 ft 506 kts 92°
2026-05-07 14:37 38.92216 -10.98347 25735 ft 495 kts 92°
2026-05-07 14:37 38.92249 -10.93940 25282 ft 489 kts 92°
2026-05-07 14:38 38.92278 -10.89569 24756 ft 485 kts 92°
2026-05-07 14:38 38.92306 -10.85253 24292 ft 480 kts 92°
2026-05-07 14:38 38.92333 -10.81038 23846 ft 475 kts 92°
2026-05-07 14:38 38.92357 -10.76814 23405 ft 469 kts 92°
2026-05-07 14:39 38.92379 -10.72643 22926 ft 463 kts 92°
2026-05-07 14:39 38.92399 -10.68533 22499 ft 456 kts 93°
2026-05-07 14:39 38.92328 -10.64486 22084 ft 450 kts 95°
2026-05-07 14:39 38.92202 -10.60482 21662 ft 445 kts 95°
2026-05-07 14:40 38.92068 -10.56532 21246 ft 440 kts 95°
2026-05-07 14:40 38.91930 -10.52621 20809 ft 436 kts 95°
2026-05-07 14:40 38.91794 -10.48734 20370 ft 433 kts 95°
2026-05-07 14:40 38.91659 -10.44888 19950 ft 429 kts 95°
2026-05-07 14:41 38.91525 -10.41072 19534 ft 425 kts 95°
2026-05-07 14:41 38.91392 -10.37296 19127 ft 421 kts 95°
2026-05-07 14:41 38.91258 -10.33547 18721 ft 417 kts 95°
2026-05-07 14:41 38.91124 -10.29826 18304 ft 414 kts 95°
2026-05-07 14:42 38.90994 -10.26212 18015 ft 405 kts 95°
2026-05-07 14:42 38.90866 -10.22654 17889 ft 390 kts 95°
2026-05-07 14:42 38.90741 -10.19226 17758 ft 377 kts 95°
2026-05-07 14:42 38.90616 -10.15906 17588 ft 366 kts 95°
2026-05-07 14:43 38.90496 -10.12693 17439 ft 354 kts 95°
2026-05-07 14:43 38.90379 -10.09580 17320 ft 342 kts 95°
2026-05-07 14:43 38.90264 -10.06581 17219 ft 330 kts 95°
2026-05-07 14:43 38.90153 -10.03675 17121 ft 321 kts 95°
2026-05-07 14:44 38.90043 -10.00837 17038 ft 315 kts 95°
2026-05-07 14:44 38.89935 -9.98040 16827 ft 314 kts 95°
2026-05-07 14:44 38.89825 -9.95232 16487 ft 313 kts 95°
2026-05-07 14:44 38.89716 -9.92441 16172 ft 312 kts 95°
2026-05-07 14:45 38.89607 -9.89664 15867 ft 310 kts 95°
2026-05-07 14:45 38.89497 -9.86901 15562 ft 308 kts 95°
2026-05-07 14:45 38.89389 -9.84196 15265 ft 306 kts 95°
2026-05-07 14:45 38.89279 -9.81461 14960 ft 305 kts 95°
2026-05-07 14:46 38.89168 -9.78743 14640 ft 304 kts 95°
2026-05-07 14:46 38.89060 -9.76037 14337 ft 303 kts 95°
2026-05-07 14:46 38.88950 -9.73336 14041 ft 301 kts 95°
2026-05-07 14:46 38.88840 -9.70649 13747 ft 300 kts 95°
2026-05-07 14:47 38.88728 -9.67974 13416 ft 298 kts 95°
2026-05-07 14:47 38.88620 -9.65322 13089 ft 296 kts 95°
2026-05-07 14:47 38.88513 -9.62729 12801 ft 293 kts 95°
2026-05-07 14:47 38.88402 -9.60128 12550 ft 288 kts 95°
2026-05-07 14:48 38.88057 -9.57675 12456 ft 271 kts 118°
2026-05-07 14:48 38.86930 -9.55846 12383 ft 259 kts 146°
2026-05-07 14:48 38.85315 -9.54889 12076 ft 256 kts 172°
2026-05-07 14:48 38.83545 -9.54805 11783 ft 254 kts 182°
2026-05-07 14:49 38.81788 -9.54867 11487 ft 252 kts 182°
2026-05-07 14:49 38.81458 -9.54879 11440 ft 252 kts 182°
2026-05-07 14:49 38.80153 -9.54924 11234 ft 251 kts 182°
2026-05-07 14:49 38.78414 -9.54978 10954 ft 249 kts 182°
2026-05-07 14:50 38.76685 -9.55023 10690 ft 248 kts 182°
2026-05-07 14:50 38.74965 -9.55066 10416 ft 246 kts 182°
2026-05-07 14:50 38.73255 -9.55106 10150 ft 244 kts 181°
2026-05-07 14:50 38.71566 -9.55142 9887 ft 241 kts 182°
2026-05-07 14:51 38.69903 -9.55179 9601 ft 238 kts 181°
2026-05-07 14:51 38.68260 -9.55216 9325 ft 234 kts 181°
2026-05-07 14:51 38.66642 -9.55251 9065 ft 231 kts 181°
2026-05-07 14:51 38.65027 -9.55287 8807 ft 233 kts 181°
2026-05-07 14:52 38.63407 -9.55322 8555 ft 232 kts 181°
2026-05-07 14:52 38.61798 -9.55356 8291 ft 230 kts 182°
2026-05-07 14:52 38.60202 -9.55363 8040 ft 228 kts 178°
2026-05-07 14:52 38.58616 -9.55182 7944 ft 230 kts 172°
2026-05-07 14:53 38.57067 -9.54819 7940 ft 228 kts 170°
2026-05-07 14:53 38.55508 -9.54425 7937 ft 228 kts 170°
2026-05-07 14:53 38.53949 -9.54030 7936 ft 229 kts 170°
2026-05-07 14:53 38.52384 -9.53631 7940 ft 228 kts 170°
2026-05-07 14:54 38.50832 -9.53216 7931 ft 229 kts 165°
2026-05-07 14:54 38.49329 -9.52488 7929 ft 234 kts 154°
2026-05-07 14:54 38.47926 -9.51406 7934 ft 235 kts 148°
2026-05-07 14:54 38.46563 -9.50248 7939 ft 236 kts 148°
2026-05-07 14:55 38.45205 -9.49074 7940 ft 235 kts 148°
2026-05-07 14:55 38.43852 -9.47908 7935 ft 234 kts 149°
2026-05-07 14:55 38.42505 -9.46730 7935 ft 235 kts 144°
2026-05-07 14:55 38.41335 -9.45310 7934 ft 235 kts 131°
2026-05-07 14:56 38.40375 -9.43629 7935 ft 234 kts 127°
2026-05-07 14:56 38.39469 -9.41903 7932 ft 234 kts 126°
2026-05-07 14:56 38.38570 -9.40168 7936 ft 234 kts 126°
2026-05-07 14:56 38.37666 -9.38443 7937 ft 235 kts 125°
2026-05-07 14:57 38.36773 -9.36687 7929 ft 236 kts 120°
2026-05-07 14:57 38.36131 -9.34758 7939 ft 237 kts 109°
2026-05-07 14:57 38.35746 -9.32696 7937 ft 238 kts 104°
2026-05-07 14:57 38.35424 -9.30619 7933 ft 238 kts 104°
2026-05-07 14:58 38.35105 -9.28547 7936 ft 238 kts 104°
2026-05-07 14:58 38.34782 -9.26470 7938 ft 238 kts 103°
2026-05-07 14:58 38.34506 -9.24385 7935 ft 239 kts 96°
2026-05-07 14:58 38.34543 -9.22259 7932 ft 242 kts 84°
2026-05-07 14:59 38.34830 -9.20139 7932 ft 242 kts 81°
2026-05-07 14:59 38.35162 -9.18068 7930 ft 241 kts 77°
2026-05-07 14:59 38.35880 -9.16138 7920 ft 246 kts 49°
2026-05-07 14:59 38.37286 -9.14866 7927 ft 247 kts 18°
2026-05-07 15:00 38.38982 -9.14626 7788 ft 248 kts 348°
2026-05-07 15:00 38.40530 -9.15445 7452 ft 244 kts 322°
2026-05-07 15:00 38.41873 -9.16756 7189 ft 242 kts 320°
2026-05-07 15:00 38.43187 -9.18089 6876 ft 241 kts 319°
2026-05-07 15:01 38.44507 -9.19425 6520 ft 243 kts 320°
2026-05-07 15:01 38.45847 -9.20756 6151 ft 245 kts 321°
2026-05-07 15:01 38.47211 -9.22088 5771 ft 247 kts 322°
2026-05-07 15:01 38.48583 -9.23421 5418 ft 248 kts 322°
2026-05-07 15:02 38.49962 -9.24759 5070 ft 249 kts 321°
2026-05-07 15:02 38.51348 -9.26102 4705 ft 250 kts 322°
2026-05-07 15:02 38.52735 -9.27448 4386 ft 250 kts 322°
2026-05-07 15:02 38.54133 -9.28754 4088 ft 248 kts 328°
2026-05-07 15:03 38.55781 -9.29260 3847 ft 247 kts
2026-05-07 15:03 38.57331 -9.28497 3672 ft 242 kts 37°
2026-05-07 15:03 38.58331 -9.26818 3516 ft 236 kts 65°
2026-05-07 15:03 38.58943 -9.24899 3377 ft 229 kts 64°
2026-05-07 15:04 38.59901 -9.23362 3211 ft 218 kts 32°
2026-05-07 15:04 38.61223 -9.22487 3043 ft 212 kts 18°
2026-05-07 15:04 38.62600 -9.21839 3020 ft 207 kts 17°
2026-05-07 15:04 38.63891 -9.21219 3021 ft 189 kts 18°
2026-05-07 15:05 38.65092 -9.20601 2796 ft 184 kts 18°
2026-05-07 15:05 38.66275 -9.19972 2546 ft 183 kts 18°
2026-05-07 15:05 38.67449 -9.19338 2305 ft 182 kts 18°
2026-05-07 15:05 38.68595 -9.18717 2073 ft 174 kts 17°
2026-05-07 15:06 38.69676 -9.18132 1832 ft 163 kts 17°
2026-05-07 15:06 38.70675 -9.17590 1601 ft 154 kts 15°
2026-05-07 15:06 38.71662 -9.17065 1407 ft 153 kts 17°
2026-05-07 15:06 38.72643 -9.16530 1202 ft 153 kts 16°
2026-05-07 15:07 38.73631 -9.15998 996 ft 154 kts 16°
2026-05-07 15:07 38.74617 -9.15472 822 ft 152 kts 17°
2026-05-07 15:07 38.75592 -9.14950 575 ft 153 kts 17°
2026-05-07 15:07 38.76574 -9.14417 381 ft 152 kts 18°
2026-05-07 15:08 38.77426 -9.13970 357 ft 102 kts 22°
2026-05-07 15:08 38.77835 -9.13753 359 ft 27 kts 22°
2026-05-07 15:08 38.78000 -9.13664 357 ft 32 kts 22°
2026-05-07 15:08 38.78211 -9.13545 361 ft 29 kts 32°
2026-05-07 15:09 38.78345 -9.13392 362 ft 16 kts 49°
2026-05-07 15:09 38.78367 -9.13298 361 ft 11 kts 113°
2026-05-07 15:09 38.78297 -9.13278 363 ft 12 kts 196°
2026-05-07 15:09 38.78286 -9.13283 361 ft 2 kts 199°
2026-05-07 15:10 38.78263 -9.13293 361 ft 5 kts 200°